TimeCST,TemperatureF,Dew PointF,Humidity,Sea Level PressureIn,VisibilityMPH,Wind Direction,Wind SpeedMPH,Gust SpeedMPH,PrecipitationIn,Events,Conditions,WindDirDegrees,DateUTC
12:14 AM,26.6,26.6,100,29.77,2.0,NW,9.2,-,N/A,,Mist,320,2013-12-04 06:14:00
12:33 AM,26.6,26.6,100,29.76,2.5,NNW,10.4,-,N/A,,Mist,330,2013-12-04 06:33:00
12:54 AM,26.6,26.6,100,29.76,2.0,NW,8.1,-,N/A,Snow,Light Snow,320,2013-12-04 06:54:00
1:14 AM,26.6,24.8,93,29.76,1.8,NW,8.1,-,N/A,Snow,Light Snow,320,2013-12-04 07:14:00
1:33 AM,26.6,24.8,93,29.75,1.0,NW,6.9,-,0.01,Snow,Snow,320,2013-12-04 07:33:00
1:53 AM,26.6,24.8,93,29.75,1.5,NW,5.8,-,0.01,Snow,Light Snow,320,2013-12-04 07:53:00
2:14 AM,26.6,24.8,93,29.75,1.5,NW,6.9,-,0.01,Snow,Light Snow,320,2013-12-04 08:14:00
2:33 AM,26.6,26.6,100,29.74,1.5,NW,3.5,-,0.01,Snow,Light Snow,320,2013-12-04 08:33:00
2:53 AM,26.6,26.6,100,29.75,2.0,NW,4.6,-,0.01,Snow,Light Snow,310,2013-12-04 08:53:00
3:14 AM,26.6,26.6,100,29.75,1.8,NW,8.1,-,N/A,Snow,Light Snow,310,2013-12-04 09:14:00
3:33 AM,26.6,24.8,93,29.74,1.5,NW,6.9,-,N/A,Snow,Light Snow,310,2013-12-04 09:33:00
3:54 AM,26.6,24.8,93,29.74,1.8,NW,4.6,-,0.01,Snow,Light Snow,320,2013-12-04 09:54:00
4:13 AM,28.4,26.6,93,29.72,2.0,NW,4.6,-,N/A,Snow,Light Snow,320,2013-12-04 10:13:00
4:33 AM,28.4,26.6,93,29.72,1.5,NW,6.9,-,N/A,Snow,Light Snow,320,2013-12-04 10:33:00
4:54 AM,28.4,26.6,93,29.72,1.5,NNW,5.8,-,N/A,Snow,Light Snow,330,2013-12-04 10:54:00
5:13 AM,28.4,26.6,93,29.72,1.8,NW,5.8,-,N/A,Snow,Light Snow,320,2013-12-04 11:13:00
5:33 AM,28.4,28.4,100,29.70,1.0,NNW,4.6,-,0.01,Snow,Snow,340,2013-12-04 11:33:00
5:54 AM,30.2,30.2,100,29.69,1.2,North,3.5,-,0.01,Snow,Light Snow,10,2013-12-04 11:54:00
6:13 AM,32.0,32.0,100,29.67,1.5,NE,5.8,-,0.02,Snow,Light Snow,50,2013-12-04 12:13:00
6:33 AM,32.0,30.2,93,29.67,3.0,NE,8.1,-,0.03,Snow,Light Snow,50,2013-12-04 12:33:00
6:54 AM,32.0,30.2,93,29.69,2.5,NE,6.9,-,0.04,Snow,Light Snow,40,2013-12-04 12:54:00
7:13 AM,30.2,30.2,100,29.68,2.5,NE,6.9,-,0.01,Snow,Light Snow,40,2013-12-04 13:13:00
7:33 AM,30.2,30.2,100,29.68,2.5,NE,5.8,-,0.02,Snow,Light Snow,50,2013-12-04 13:33:00
7:54 AM,30.2,30.2,100,29.67,4.0,NE,5.8,-,0.03,Snow,Light Snow,50,2013-12-04 13:54:00
8:13 AM,30.2,30.2,100,29.66,2.0,NE,4.6,-,N/A,Snow,Light Snow,40,2013-12-04 14:13:00
8:34 AM,30.2,30.2,100,29.67,7.0,NNE,4.6,-,0.01,Snow,Light Snow,30,2013-12-04 14:34:00
8:54 AM,30.2,30.2,100,29.66,10.0,NNE,5.8,-,0.02,,Mostly Cloudy,20,2013-12-04 14:54:00
9:13 AM,30.2,30.2,100,29.65,10.0,NNE,5.8,-,0.01,,Mostly Cloudy,30,2013-12-04 15:13:00
9:34 AM,30.2,30.2,100,29.63,7.0,NNE,8.1,-,0.01,Snow,Light Snow,30,2013-12-04 15:34:00
9:54 AM,30.2,30.2,100,29.65,2.5,North,5.8,-,0.02,Snow,Light Snow,360,2013-12-04 15:54:00
10:13 AM,30.2,28.4,93,29.66,2.0,NNW,4.6,-,N/A,Snow,Light Snow,340,2013-12-04 16:13:00
10:34 AM,30.2,28.4,93,29.65,0.8,North,5.8,-,0.01,Snow,Light Snow,360,2013-12-04 16:34:00
10:54 AM,30.2,28.4,93,29.64,1.0,North,5.8,-,0.02,Snow,Light Snow,350,2013-12-04 16:54:00
11:13 AM,30.2,28.4,93,29.64,1.2,NNW,8.1,-,0.01,Snow,Light Snow,340,2013-12-04 17:13:00
11:34 AM,30.2,28.4,93,29.62,2.5,NNW,8.1,-,0.01,Snow,Light Snow,340,2013-12-04 17:34:00
11:53 AM,30.2,28.4,93,29.62,1.0,NNW,6.9,-,0.02,Snow,Light Snow,340,2013-12-04 17:53:00
12:13 PM,30.2,28.4,93,29.62,1.5,NNW,8.1,-,N/A,Snow,Light Snow,330,2013-12-04 18:13:00
12:34 PM,30.2,28.4,93,29.59,0.8,NNW,11.5,-,0.01,Snow,Light Snow,340,2013-12-04 18:34:00
12:53 PM,28.4,26.6,93,29.60,0.5,NNW,13.8,-,0.01,Snow,Light Snow,340,2013-12-04 18:53:00
1:14 PM,28.4,26.6,93,29.61,0.5,NNW,11.5,-,0.01,Snow,Light Snow,330,2013-12-04 19:14:00
1:33 PM,28.4,24.8,86,29.61,1.5,NNW,16.1,-,0.01,Snow,Light Snow,330,2013-12-04 19:33:00
1:54 PM,26.6,24.8,93,29.60,1.2,NNW,17.3,-,0.01,Snow,Light Snow,330,2013-12-04 19:54:00
2:14 PM,26.6,24.8,93,29.59,2.5,NNW,17.3,21.9,N/A,Snow,Light Snow,330,2013-12-04 20:14:00
2:33 PM,26.6,23.0,86,29.60,5.0,NW,17.3,-,N/A,Snow,Light Snow,320,2013-12-04 20:33:00
2:54 PM,24.8,21.2,86,29.61,7.0,NW,17.3,24.2,N/A,Snow,Light Snow,320,2013-12-04 20:54:00
3:14 PM,24.8,19.4,80,29.63,10.0,NW,17.3,-,N/A,Snow,Light Snow,320,2013-12-04 21:14:00
3:33 PM,23.0,19.4,86,29.63,7.0,NW,20.7,-,N/A,,Mostly Cloudy,320,2013-12-04 21:33:00
3:54 PM,23.0,19.4,86,29.65,7.0,NW,15.0,27.6,N/A,,Mostly Cloudy,320,2013-12-04 21:54:00
4:14 PM,21.2,17.6,86,29.66,7.0,NW,19.6,25.3,N/A,Snow,Light Snow,320,2013-12-04 22:14:00
4:33 PM,21.2,17.6,86,29.65,7.0,NW,19.6,23.0,N/A,Snow,Light Snow,320,2013-12-04 22:33:00
4:54 PM,21.2,17.6,86,29.66,7.0,NW,20.7,27.6,N/A,Snow,Light Snow,320,2013-12-04 22:54:00
5:14 PM,19.4,15.8,86,29.66,7.0,NW,21.9,29.9,N/A,Snow,Light Snow,320,2013-12-04 23:14:00
5:33 PM,19.4,15.8,86,29.69,5.0,NW,25.3,29.9,N/A,Snow,Light Snow,310,2013-12-04 23:33:00
5:54 PM,19.4,15.8,86,29.69,5.0,NW,23.0,28.8,N/A,Snow,Light Snow,320,2013-12-04 23:54:00
6:14 PM,17.6,14.0,86,29.70,5.0,WNW,18.4,25.3,N/A,Snow,Light Snow,300,2013-12-05 00:14:00
6:33 PM,17.6,12.2,79,29.71,5.0,NW,21.9,29.9,N/A,Snow,Light Snow,310,2013-12-05 00:33:00
6:54 PM,15.8,10.4,79,29.72,10.0,WNW,19.6,28.8,N/A,,Overcast,300,2013-12-05 00:54:00
7:14 PM,15.8,10.4,79,29.74,10.0,WNW,20.7,25.3,N/A,,Overcast,300,2013-12-05 01:14:00
7:33 PM,15.8,8.6,73,29.76,10.0,WNW,19.6,28.8,N/A,,Overcast,300,2013-12-05 01:33:00
7:54 PM,14.0,8.6,79,29.75,10.0,NW,18.4,27.6,N/A,,Overcast,310,2013-12-05 01:54:00
8:13 PM,14.0,8.6,79,29.77,10.0,WNW,21.9,28.8,N/A,,Mostly Cloudy,300,2013-12-05 02:13:00
8:34 PM,12.2,6.8,79,29.78,10.0,WNW,20.7,29.9,N/A,,Scattered Clouds,300,2013-12-05 02:34:00
8:54 PM,12.2,6.8,79,29.79,10.0,WNW,18.4,23.0,N/A,,Scattered Clouds,300,2013-12-05 02:54:00
9:13 PM,12.2,6.8,79,29.78,10.0,WNW,23.0,28.8,N/A,Snow,Light Snow,300,2013-12-05 03:13:00
9:34 PM,12.2,6.8,79,29.79,7.0,WNW,21.9,29.9,N/A,Snow,Light Snow,300,2013-12-05 03:34:00
9:53 PM,12.2,5.0,73,29.80,10.0,WNW,17.3,26.5,N/A,,Scattered Clouds,300,2013-12-05 03:53:00
10:14 PM,12.2,5.0,73,29.80,10.0,WNW,17.3,26.5,N/A,,Clear,300,2013-12-05 04:14:00
10:34 PM,10.4,5.0,79,29.80,10.0,WNW,17.3,24.2,N/A,,Clear,300,2013-12-05 04:34:00
10:53 PM,12.2,5.0,73,29.80,10.0,NW,18.4,26.5,N/A,,Clear,310,2013-12-05 04:53:00
11:14 PM,12.2,5.0,73,29.82,10.0,WNW,18.4,23.0,N/A,,Clear,300,2013-12-05 05:14:00
11:34 PM,12.2,5.0,73,29.84,10.0,WNW,23.0,29.9,N/A,,Clear,300,2013-12-05 05:34:00
11:53 PM,10.4,5.0,79,29.85,10.0,NW,20.7,27.6,N/A,,Clear,310,2013-12-05 05:53:00